Temp
74 74 72 69 68 67 66 65 65 65 65 64 64 64 63 63 63 63 63 63 63 62 61 60 60 60 60 60 59 60 65 73
74 74 74 72 70 67 66 65 65 65 64 63 63 63 62 63 62 62 61 62 63 62 60 59 58 59 58 58 59 60 67 72
73 73 74 73 72 69 66 65 65 64 64 63 63 71 71 69 63 60 60 60 61 60 59 58 58 59 58 58 59 71 71 73
74 73 73 73 75 69 70 70 70 70 70 67 71 70 70 69 64 60 60 60 61 60 58 58 60 69 67 61 69 67 69 70
75 72 72 73 74 73 74 74 74 73 71 70 71 70 71 70 71 69 68 61 67 63 63 65 67 65 67 66 67 67 71 71
76 74 71 72 75 75 75 75 74 74 72 69 68 69 69 68 70 70 69 69 67 67 68 67 64 64 64 63 64 65 69 69
75 74 71 72 72 74 74 74 73 74 72 70 69 69 68 68 68 69 68 69 67 66 67 66 65 65 64 64 64 64 64 66
74 73 71 72 71 71 72 72 74 72 72 71 69 67 67 68 67 67 67 68 68 67 66 65 65 65 64 64 63 64 64 64
72 72 71 70 70 71 71 73 72 72 72 70 68 67 66 65 66 66 67 67 65 64 64 64 63 64 63 63 64 63 63 63
72 74 71 69 70 70 72 74 72 72 73 72 69 68 66 65 65 65 66 66 65 64 63 63 63 63 62 63 64 64 63 62
72 72 71 70 69 70 70 70 70 71 72 72 70 69 67 65 65 65 65 65 64 63 62 61 60 61 62 62 62 62 63 65
73 72 69 68 69 69 70 70 70 71 71 71 69 69 67 65 64 63 63 63 63 62 60 61 61 60 61 61 62 62 63 62
63 63 67 68 68 66 66 65 66 67 69 69 69 67 65 63 63 62 62 61 60 61 60 58 58 60 57 57 59 60 60 60
66 68 67 66 67 68 68 67 68 68 68 67 67 65 64 63 61 60 61 61 60 59 58 57 58 59 54 55 51 57 60 61
65 66 66 66 68 68 65 64 61 65 67 67 68 66 65 63 61 60 59 59 58 58 58 56 53 57 58 52 46 49 58 59
68 68 68 69 68 65 60 61 60 63 63 65 65 64 63 62 60 59 58 59 57 57 58 57 56 52 56 58 55 53 47 51
68 68 68 68 67 65 63 61 62 63 62 61 61 62 62 61 60 58 57 57 56 56 56 55 56 54 54 54 54 54 53 47
67 67 67 67 66 64 61 59 58 58 58 58 59 60 61 61 61 59 58 57 56 56 55 54 54 55 55 54 53 48 48 48
66 65 64 65 64 62 61 59 58 56 57 57 56 57 57 58 58 57 57 56 56 56 55 54 54 52 53 53 54 51 51 51
63 63 62 63 62 61 60 60 58 58 57 56 55 54 55 55 54 54 54 56 56 55 54 51 51 51 51 52 51 50 50 49
MSLP
1016.76 1017.44 1018.25 1018.91 1019.38 1019.81 1020.33 1020.71 1021.02 1021.18 1021.30 1021.44 1021.65 1021.74 1021.81 1021.87 1021.87 1021.89 1021.97 1021.97 1021.88 1021.98 1022.08 1022.26 1022.28 1022.18 1022.00 1021.86 1021.71 1021.31 1020.60 1019.39
1016.54 1017.31 1018.03 1018.68 1019.45 1020.08 1020.48 1020.82 1021.06 1021.20 1021.47 1021.65 1021.79 1021.80 1021.88 1021.91 1021.97 1022.07 1022.15 1022.12 1022.01 1022.08 1022.26 1022.37 1022.33 1022.21 1022.06 1021.88 1021.59 1021.19 1020.43 1019.75
1016.55 1017.16 1017.67 1018.21 1018.98 1019.93 1020.53 1020.89 1021.14 1021.32 1021.52 1021.75 1021.76 1020.89 1020.96 1021.11 1021.85 1022.18 1022.30 1022.31 1022.17 1022.24 1022.47 1022.49 1022.32 1021.92 1021.92 1021.62 1021.35 1019.90 1019.97 1019.65
1016.62 1017.05 1017.49 1018.04 1018.39 1019.63 1019.92 1020.32 1020.58 1020.71 1020.65 1021.14 1020.74 1020.81 1020.91 1021.25 1021.66 1022.11 1022.23 1022.26 1022.18 1022.27 1022.46 1022.38 1021.96 1020.57 1020.71 1021.07 1020.31 1020.59 1020.16 1020.10
1016.39 1017.22 1017.71 1017.81 1017.90 1018.81 1018.95 1019.28 1019.37 1019.80 1020.23 1020.52 1020.44 1020.67 1020.54 1020.75 1020.69 1020.73 1020.91 1021.80 1021.11 1021.75 1021.60 1021.34 1020.79 1021.21 1020.79 1020.79 1020.70 1020.65 1019.97 1019.96
1016.24 1017.07 1017.77 1017.79 1018.07 1018.24 1018.38 1018.57 1019.09 1019.30 1019.68 1020.43 1020.56 1020.40 1020.35 1020.64 1020.41 1020.34 1020.61 1020.60 1020.68 1020.80 1020.53 1020.66 1021.30 1021.32 1021.29 1021.21 1021.04 1020.93 1020.16 1020.22
1016.16 1016.98 1017.82 1018.09 1018.17 1018.13 1018.39 1018.67 1019.07 1019.06 1019.51 1019.89 1020.39 1020.24 1020.18 1020.35 1020.32 1020.43 1020.44 1020.43 1020.51 1020.64 1020.51 1020.53 1020.76 1020.84 1020.95 1020.95 1020.88 1020.82 1020.81 1020.73
1016.35 1017.13 1017.84 1018.18 1018.34 1018.46 1018.74 1018.99 1018.81 1019.40 1019.34 1019.51 1020.11 1020.36 1020.17 1020.09 1020.07 1020.09 1020.16 1020.24 1020.31 1020.36 1020.36 1020.39 1020.38 1020.48 1020.57 1020.66 1020.75 1020.68 1020.59 1020.66
1016.71 1017.28 1017.90 1018.26 1018.47 1018.76 1018.87 1018.69 1019.03 1018.87 1018.95 1019.32 1019.80 1020.08 1020.06 1020.14 1020.01 1019.90 1019.81 1019.93 1020.23 1020.55 1020.61 1020.58 1020.56 1020.38 1020.22 1020.43 1020.47 1020.47 1020.52 1020.56
1016.93 1017.33 1018.04 1018.45 1018.47 1018.70 1018.64 1018.34 1018.82 1018.69 1018.63 1018.76 1019.08 1019.51 1019.84 1019.92 1019.69 1019.50 1019.52 1019.68 1019.80 1019.86 1020.05 1020.05 1020.01 1019.97 1019.90 1019.91 1019.85 1019.86 1020.00 1020.26
1016.98 1017.57 1018.01 1018.43 1018.67 1018.63 1018.65 1018.74 1018.87 1018.55 1018.29 1018.33 1018.50 1018.86 1019.24 1019.57 1019.45 1019.22 1019.26 1019.30 1019.38 1019.53 1019.65 1019.80 1019.77 1019.79 1019.59 1019.57 1019.71 1019.68 1019.62 1019.56
1017.05 1017.75 1018.24 1018.56 1018.54 1018.59 1018.49 1018.23 1018.23 1018.19 1018.02 1018.01 1018.18 1018.40 1018.70 1018.97 1018.98 1019.04 1019.11 1018.96 1018.86 1018.97 1019.20 1019.38 1019.45 1019.44 1019.40 1019.06 1019.14 1019.31 1019.31 1019.26
1018.39 1018.53 1018.35 1018.35 1018.32 1018.21 1017.89 1017.70 1017.61 1017.52 1017.38 1017.37 1017.52 1017.85 1018.24 1018.59 1018.62 1018.55 1018.56 1018.55 1018.56 1018.61 1018.84 1019.07 1019.22 1019.35 1019.30 1019.19 1018.93 1018.83 1018.94 1019.06
1017.99 1017.79 1017.94 1018.42 1018.26 1017.77 1017.66 1017.68 1017.59 1017.45 1017.32 1017.30 1017.41 1017.63 1017.92 1018.17 1018.33 1018.28 1018.15 1018.01 1018.04 1018.35 1018.58 1018.62 1018.57 1018.74 1018.80 1018.66 1018.26 1017.73 1017.56 1018.09
1017.97 1018.00 1017.97 1017.95 1017.87 1017.85 1017.96 1017.93 1018.00 1016.90 1016.40 1016.23 1016.22 1016.59 1016.86 1017.22 1017.62 1017.83 1017.84 1017.80 1017.71 1017.85 1018.10 1018.23 1018.29 1018.31 1018.43 1018.74 1018.61 1017.55 1016.44 1017.48
1017.72 1017.54 1017.66 1017.56 1017.85 1017.99 1018.10 1017.52 1017.09 1016.71 1016.50 1016.30 1016.21 1016.33 1016.42 1016.57 1016.81 1017.04 1017.26 1017.31 1017.25 1017.36 1017.50 1017.68 1017.90 1017.91 1017.99 1018.05 1018.49 1018.63 1018.13 1017.36
1017.67 1017.63 1017.50 1017.34 1017.33 1017.46 1017.40 1017.16 1016.84 1016.54 1016.36 1016.02 1015.85 1015.75 1015.71 1015.73 1015.83 1016.21 1016.40 1016.59 1016.69 1016.88 1016.91 1017.13 1017.34 1017.63 1017.57 1017.53 1017.70 1018.33 1018.69 1018.75
1017.59 1017.50 1017.25 1017.18 1017.19 1017.23 1017.19 1017.01 1016.76 1016.39 1016.01 1015.74 1015.41 1015.03 1014.78 1014.62 1014.69 1014.87 1015.22 1015.64 1015.93 1016.17 1016.38 1016.65 1016.91 1017.06 1017.18 1017.20 1017.22 1017.77 1018.09 1018.43
1017.61 1017.48 1017.24 1017.11 1017.02 1016.95 1016.79 1016.63 1016.46 1016.10 1015.68 1015.24 1014.99 1014.66 1014.43 1014.22 1014.21 1014.11 1014.20 1014.47 1014.89 1015.28 1015.58 1015.94 1016.30 1016.64 1016.79 1016.94 1017.21 1017.69 1018.31 1018.52
1017.72 1017.57 1017.25 1017.02 1016.77 1016.60 1016.51 1016.31 1016.03 1015.71 1015.45 1015.34 1015.16 1014.80 1014.57 1014.44 1014.28 1014.18 1013.95 1013.75 1013.97 1014.44 1014.90 1015.28 1015.65 1015.98 1016.47 1016.80 1017.19 1017.65 1018.29 1018.79
Wind_Speed
14 15 14 13 12 13 12 10 9 8 7 6 5 5 3 3 2 3 4 5 3 1 3 4 7 9 10 9 10 12 11 4
14 14 14 13 11 12 11 10 10 9 7 6 4 4 4 3 3 3 4 4 3 2 2 3 6 7 7 8 11 13 8 5
13 13 12 12 12 11 11 10 9 9 8 7 8 7 3 7 9 5 3 4 5 1 2 5 9 12 6 6 10 3 5 1
13 12 11 11 10 12 10 10 9 9 8 9 7 3 4 6 3 5 4 4 4 5 5 8 12 6 6 9 5 5 6 3
15 12 11 11 9 9 6 6 6 5 4 4 3 3 3 4 2 6 6 9 7 10 10 9 5 5 6 4 6 5 3 3
15 14 11 9 7 6 6 5 4 4 6 5 4 4 3 3 4 5 3 4 4 5 5 2 5 6 6 6 5 6 4 4
14 13 11 8 6 5 3 3 5 3 4 6 4 5 4 4 4 5 5 5 4 5 6 5 5 6 5 6 6 6 6 5
12 12 10 9 7 4 4 4 2 4 4 4 6 6 5 6 6 6 6 6 6 6 6 6 6 6 6 7 7 7 6 5
11 10 9 8 7 6 5 4 4 5 5 5 7 7 7 8 7 8 8 7 8 7 8 7 7 7 8 7 7 8 8 7
10 8 9 7 7 5 6 5 5 6 6 6 7 8 9 9 8 9 9 7 8 8 8 7 7 7 6 6 7 7 7 7
9 7 7 6 6 6 6 6 6 8 7 7 8 8 9 9 9 9 10 9 9 9 8 9 8 8 8 7 7 8 8 8
5 4 3 5 6 5 7 7 7 8 8 8 10 8 10 10 9 10 10 10 10 10 11 9 9 8 9 9 7 8 8 8
4 4 10 5 5 7 7 7 5 6 7 10 11 10 11 11 10 11 10 11 11 11 11 12 10 10 9 9 10 11 11 9
9 10 4 5 9 7 7 8 9 11 12 13 13 13 12 11 12 11 12 10 12 12 12 10 10 9 9 9 9 8 11 9
6 7 9 7 9 8 8 8 8 12 11 11 11 12 12 12 13 12 13 11 11 11 12 14 10 10 12 7 5 8 5 8
6 5 8 8 8 9 12 12 13 12 12 12 12 13 14 15 14 14 13 11 12 12 11 12 12 11 10 10 12 7 3 3
5 7 10 11 11 11 11 14 12 12 12 16 14 13 15 16 14 13 12 10 12 13 13 12 11 11 11 9 11 11 10 6
8 11 12 13 12 13 14 16 16 14 14 13 12 11 11 14 15 13 13 13 13 13 13 15 12 12 11 11 8 8 7 7
10 13 14 14 14 15 15 16 16 17 16 12 15 12 11 12 13 12 11 13 14 13 13 13 13 12 13 9 9 7 6 7
13 14 15 15 15 16 15 16 12 12 13 12 12 12 13 15 14 15 15 15 13 13 10 10 12 12 14 11 7 5 7 7
Wind_Direction
147 151 145 143 145 146 147 149 146 149 119 114 107 106 75 61 20 46 21 352 342 80 62 35 3 354 348 343 330 314 298 6
152 146 159 156 154 152 153 155 155 155 142 138 133 154 170 190 216 103 9 338 331 39 48 342 325 322 326 324 304 289 276 301
148 152 157 156 153 155 162 163 164 164 167 173 214 225 163 185 83 68 356 318 292 173 327 310 289 268 245 267 285 307 313 357
156 156 156 156 157 149 174 167 182 194 195 172 231 53 24 348 104 155 221 245 246 223 245 261 269 289 190 222 261 358 268 317
155 157 158 172 141 174 174 172 180 181 201 228 200 308 209 224 197 186 199 184 231 196 197 231 9 326 325 323 341 283 300 285
159 160 160 184 159 187 167 181 181 205 181 193 243 232 219 247 295 309 229 267 324 275 276 286 297 286 282 291 282 297 306 331
163 154 163 169 197 179 208 217 186 223 199 183 257 282 277 270 283 283 294 296 273 267 271 272 289 271 258 274 273 274 281 283
160 161 166 170 197 178 192 214 199 229 242 234 202 259 274 277 272 260 262 265 265 273 275 300 296 297 279 258 267 278 276 285
161 166 173 186 209 188 222 231 235 250 247 223 239 256 259 264 270 274 269 265 260 262 264 254 256 262 258 256 264 251 256 257
166 179 171 195 211 204 235 238 250 260 261 256 242 245 252 263 265 263 263 257 257 253 256 257 259 261 268 275 271 253 252 258
170 178 183 196 212 245 242 269 261 270 278 272 269 257 253 259 269 270 264 253 249 249 249 256 262 268 268 255 256 266 263 253
162 156 224 229 260 239 266 262 262 257 266 270 278 272 268 264 262 261 260 258 251 242 245 249 256 261 273 281 265 256 261 257
10 263 243 238 249 252 255 255 259 265 274 276 278 274 268 271 264 264 254 250 255 254 242 241 248 249 259 257 260 252 245 250
245 249 259 247 248 265 287 299 292 296 294 289 280 269 268 263 259 263 264 262 244 240 245 253 250 245 251 260 264 252 223 217
323 270 253 248 279 288 285 314 286 269 279 290 294 291 273 255 256 261 265 259 255 249 242 238 246 250 241 228 256 249 229 163
274 291 281 268 281 290 269 281 295 291 296 288 287 282 274 267 264 258 256 254 250 247 241 244 235 242 241 228 210 264 310 222
298 300 291 289 287 298 299 296 296 299 293 290 282 276 265 261 251 250 249 245 245 247 246 233 234 238 235 238 207 218 232 245
314 313 308 313 312 305 299 295 295 294 294 294 284 273 271 269 263 250 240 240 241 240 236 235 234 233 231 229 226 207 216 214
331 325 317 317 313 308 303 301 297 292 291 292 294 291 288 287 284 265 246 234 234 241 231 227 222 229 228 226 230 194 214 230
332 321 317 317 313 314 309 306 300 301 300 305 298 291 288 286 282 280 278 265 246 230 233 233 227 217 226 222 225 198 191 208